TimeCST,TemperatureF,Dew PointF,Humidity,Sea Level PressureIn,VisibilityMPH,Wind Direction,Wind SpeedMPH,Gust SpeedMPH,PrecipitationIn,Events,Conditions,WindDirDegrees,DateUTC
12:53 AM,46.0,39.9,79,30.02,10.0,Calm,Calm,-,N/A,,Overcast,0,2011-12-22 06:53:00
1:11 AM,44.6,39.2,81,30.01,10.0,Calm,Calm,-,N/A,,Scattered Clouds,0,2011-12-22 07:11:00
1:41 AM,44.6,39.2,81,30.02,10.0,Calm,Calm,-,N/A,,Mostly Cloudy,0,2011-12-22 07:41:00
1:53 AM,45.0,39.9,82,30.03,10.0,South,3.5,-,N/A,,Overcast,170,2011-12-22 07:53:00
2:53 AM,45.0,41.0,86,30.04,10.0,Calm,Calm,-,N/A,,Overcast,0,2011-12-22 08:53:00
3:53 AM,44.1,41.0,89,30.02,10.0,Calm,Calm,-,N/A,,Overcast,0,2011-12-22 09:53:00
4:19 AM,44.6,41.0,87,30.01,10.0,Calm,Calm,-,N/A,,Partly Cloudy,0,2011-12-22 10:19:00
4:53 AM,41.0,39.0,93,30.00,8.0,Calm,Calm,-,N/A,,Clear,0,2011-12-22 10:53:00
5:50 AM,41.0,39.2,93,30.01,7.0,Calm,Calm,-,N/A,,Mostly Cloudy,0,2011-12-22 11:50:00
5:53 AM,41.0,39.9,96,30.01,7.0,Calm,Calm,-,N/A,,Mostly Cloudy,0,2011-12-22 11:53:00
6:53 AM,42.1,39.9,92,30.05,9.0,Calm,Calm,-,N/A,,Mostly Cloudy,0,2011-12-22 12:53:00
7:53 AM,43.0,41.0,93,30.04,7.0,SE,5.8,-,N/A,,Overcast,130,2011-12-22 13:53:00
8:53 AM,44.1,41.0,89,30.09,8.0,Calm,Calm,-,N/A,,Overcast,0,2011-12-22 14:53:00
9:53 AM,44.1,42.1,93,30.10,3.0,Calm,Calm,-,0.05,Rain,Light Rain,0,2011-12-22 15:53:00
10:09 AM,44.6,42.8,93,30.10,2.5,NW,3.5,-,0.02,Rain,Rain,310,2011-12-22 16:09:00
10:33 AM,44.6,42.8,93,30.09,1.8,Calm,Calm,-,0.08,Rain,Rain,0,2011-12-22 16:33:00
10:38 AM,44.6,42.8,93,30.08,2.0,Calm,Calm,-,0.09,Rain,Rain,0,2011-12-22 16:38:00
10:53 AM,44.1,43.0,96,30.07,2.0,Calm,Calm,-,0.13,Rain,Rain,0,2011-12-22 16:53:00
11:18 AM,44.6,42.8,93,30.05,3.0,NNE,4.6,-,0.03,Rain,Light Rain,30,2011-12-22 17:18:00
11:44 AM,44.6,42.8,93,30.04,3.0,North,5.8,-,0.05,Rain,Light Rain,360,2011-12-22 17:44:00
11:53 AM,44.1,43.0,96,30.04,4.0,North,5.8,-,0.06,Rain,Light Rain,360,2011-12-22 17:53:00
12:27 PM,44.6,42.8,93,30.03,4.0,NNW,4.6,-,0.03,Rain,Light Rain,340,2011-12-22 18:27:00
12:38 PM,44.6,42.8,93,30.02,3.0,North,6.9,-,0.04,Rain,Light Rain,350,2011-12-22 18:38:00
12:53 PM,45.0,43.0,93,30.01,3.0,North,8.1,-,0.06,Rain,Light Rain,360,2011-12-22 18:53:00
1:09 PM,44.6,42.8,93,30.00,5.0,North,6.9,-,0.01,Rain,Light Rain,360,2011-12-22 19:09:00
1:42 PM,46.4,44.6,93,29.98,6.0,North,6.9,-,0.02,Rain,Light Rain,10,2011-12-22 19:42:00
1:53 PM,46.4,42.8,87,29.99,7.0,North,8.1,-,N/A,Rain,Light Rain,360,2011-12-22 19:53:00
2:53 PM,46.0,43.0,89,29.98,8.0,NNE,5.8,-,0.00,,Overcast,20,2011-12-22 20:53:00
3:24 PM,44.6,42.8,93,30.02,5.0,NW,8.1,-,0.01,Rain,Light Rain,310,2011-12-22 21:24:00
3:34 PM,44.6,42.8,93,30.04,5.0,WNW,6.9,-,0.01,Rain,Light Rain,300,2011-12-22 21:34:00
3:53 PM,45.0,43.0,93,30.05,7.0,NW,8.1,-,0.02,Rain,Light Rain,310,2011-12-22 21:53:00
4:14 PM,44.6,42.8,93,30.05,8.0,NW,8.1,-,0.00,Rain,Light Rain,310,2011-12-22 22:14:00
4:53 PM,45.0,42.1,90,30.06,10.0,NNE,5.8,-,0.00,,Overcast,20,2011-12-22 22:53:00
5:02 PM,44.6,42.8,93,30.06,10.0,North,4.6,-,N/A,,Overcast,10,2011-12-22 23:02:00
5:22 PM,44.6,42.8,93,30.07,10.0,North,3.5,-,N/A,,Overcast,360,2011-12-22 23:22:00
5:53 PM,45.0,42.1,90,30.11,10.0,NNW,6.9,-,N/A,,Overcast,340,2011-12-22 23:53:00
6:00 PM,44.6,42.8,93,30.11,10.0,NNW,11.5,-,N/A,,Overcast,340,2011-12-23 00:00:00
6:53 PM,44.1,39.9,85,30.15,10.0,NNW,6.9,-,0.00,,Overcast,330,2011-12-23 00:53:00
7:14 PM,44.6,39.2,81,30.15,10.0,NNW,5.8,-,N/A,,Overcast,330,2011-12-23 01:14:00
7:53 PM,44.6,39.2,81,30.15,10.0,North,10.4,-,N/A,,Overcast,350,2011-12-23 01:53:00
8:53 PM,43.0,39.0,86,30.18,10.0,NNW,5.8,-,N/A,,Mostly Cloudy,340,2011-12-23 02:53:00
9:53 PM,42.1,37.0,82,30.19,10.0,North,11.5,-,N/A,,Overcast,350,2011-12-23 03:53:00
10:53 PM,41.0,37.0,86,30.22,9.0,North,8.1,-,N/A,,Overcast,350,2011-12-23 04:53:00
11:30 PM,39.2,35.6,87,30.24,9.0,North,10.4,-,N/A,,Overcast,360,2011-12-23 05:30:00
11:53 PM,39.0,36.0,89,30.24,8.0,North,8.1,-,N/A,,Overcast,360,2011-12-23 05:53:00